Location: Sungai Bunut
(2.6333°N, 113.7333°E)
Time: 17:40:47
(UTC+00:00)

Daily predictions for brighter satellites

Satellite Brightness Start Highest point End
(mag) Time Altitude Azimuth Time Altitude Azimuth Time Altitude Azimuth
SWIFT 4.4 12:00:26 10° WNW 12:03:20 18° NNW 12:04:26 17° N
Milstar 3 Cent rocket 3.5 12:02:19 10° NW 12:09:05 67° NNE 12:13:46 39° E
NOSS 0 Rocket 4.2 12:04:07 10° NNW 12:10:10 65° WSW 12:16:13 10° S
Feng Yun 1-1 Rocket 4.2 12:15:09 62° NE 12:15:09 62° NE 12:20:06 10° N
Timation 2 Rocket 4.1 12:10:47 10° SSW 12:16:42 67° WNW 12:22:43 10° N
Skynet4D Del rocket 4.3 12:31:26 10° WSW 12:37:32 60° NNW 12:37:49 60° NNW
CZ-4 R/B 3.9 12:42:01 17° WNW 12:42:01 17° WNW 12:43:23 10° NW
CENTAUR R/B 4.4 12:35:52 10° NW 12:44:10 40° WSW 12:52:01 10° S
Cosmos 2237 Rocket 4.5 13:14:02 10° WNW 13:17:32 19° W 13:17:32 19° W
ATLAS 5 CENTAUR R/B 4.1 12:57:57 10° WNW 13:44:37 68° N 13:44:37 68° N
ARIANE 5 DEB (SYLDA) 4.4 20:03:00 74° NNW 20:03:30 75° N 20:40:24 10° E
USA 215 4.0 20:09:06 10° SE 20:15:21 48° NE 20:19:29 21° N
CZ-2C R/B 3.9 20:28:29 13° SE 20:28:29 13° SE 20:28:52 10° SE
USA 32 4.3 20:25:28 10° N 20:30:39 66° E 20:35:52 10° S
SWIFT 3.6 20:35:24 38° E 20:35:24 38° E 20:38:04 10° ESE
Cosmos 1980 Rocket 2.8 20:36:36 44° NNW 20:36:36 44° NNW 20:40:32 10° N
GPS 2-15 Rocket1 3.2 20:46:41 66° SSE 20:46:45 67° SSE 20:51:35 10° ENE
Centaur D-1A AC-31 3.3 20:48:59 22° NNW 20:50:22 24° N 20:59:04 10° NE
Cosmos 614 Rocket 4.3 20:48:03 10° S 20:53:06 61° ESE 20:58:05 10° NNE
Cosmos 2218 Rocket 4.1 20:54:55 47° W 20:55:25 48° W 21:01:27 10° NNW
Ariane H10+ 3.6 20:55:18 42° NW 20:56:49 62° N 21:15:36 10° E
Meteor 2-4 Rocket 4.0 20:51:41 10° S 20:56:57 62° E 21:02:14 10° NNE
ARIANE 5 R/B 3.1 20:56:42 53° W 20:57:51 86° N 21:16:52 10° E
Cosmos 2297 Rocket 3.7 20:58:20 10° N 21:03:31 37° ENE 21:08:41 10° SE
USA 234 3.2 20:59:42 10° NE 21:06:15 85° NW 21:11:43 16° SW
Mugunghwa Rocket 4.4 21:06:46 24° SW 21:10:54 58° SSE 21:17:08 10° ENE
Spelda 3.5 21:11:06 22° S 21:11:06 22° S 21:13:14 10° SE
Milstar 3 3.6 21:07:17 21° SW 21:12:32 64° SSE 21:24:17 10° ENE
SEDSat Delta rocket 4.3 21:14:48 29° WNW 21:17:01 40° NW 21:22:05 10° NE
Cosmos 2227 Rocket 4.3 21:16:01 10° NNE 21:20:50 29° ENE 21:25:37 10° SE
Centaur D-1AR AC-40 3.8 21:17:20 22° WNW 21:21:17 47° N 21:52:29 10° ENE
SJ-12 3.8 21:22:02 10° N 21:25:58 59° WNW 21:29:55 10° SSW
Cosmos 1269 Rocket 4.4 21:22:03 15° SW 21:26:06 39° WNW 21:31:01 10° N
Meteor 1-29 3.6 21:23:42 10° NNE 21:26:43 49° E 21:29:46 10° S
Cosmos 1437 Rocket 2.5 21:24:30 10° NNW 21:28:08 59° W 21:31:47 10° S
Cosmos 1939 Rocket 2.9 21:30:02 10° N 21:34:00 55° WNW 21:37:59 10° SSW
GPS 2-17 Rocket1 3.8 21:32:15 22° WSW 21:34:20 34° SSW 21:38:20 10° SE
Tiangong -2.0 21:35:21 24° WSW 21:36:54 51° NW 21:39:55 10° NNE
OAO 2 Rocket 4.0 21:32:26 10° SW 21:37:31 52° SE 21:42:29 10° ENE
Cosmos 2360 Rocket 4.0 21:33:39 10° SSE 21:38:42 34° ESE 21:43:44 10° NE
GPS 2-12 Rocket1 3.6 21:35:51 15° SW 21:39:27 50° SSE 21:43:54 10° E
CZ-4B R/B 4.2 21:36:49 10° NNE 21:41:25 53° ESE 21:46:04 10° S
NOAA 12 4.1 21:36:11 10° NNE 21:41:25 88° ESE 21:46:39 10° SSW
Cosmos 1110 Rocket 4.2 21:37:02 10° N 21:42:14 79° ENE 21:47:29 10° SSE
Cosmos 1727 Rocket 4.2 21:36:46 10° N 21:42:55 76° E 21:49:07 10° S
SL-16 R/B 2.1 21:37:45 10° SSW 21:43:24 76° WNW 21:49:02 10° N
GOES 2 Rocket 4.4 21:39:46 15° W 21:44:21 37° NNW 21:49:02 10° NE
PSLV R/B 4.4 21:41:16 10° NNW 21:44:58 29° WNW 21:48:43 10° SW
Cosmos 2228 Rocket 3.3 21:40:58 10° S 21:45:28 79° E 21:49:59 10° N
Meteor 1-31 Rocket 3.7 21:43:22 10° NNE 21:46:59 49° ESE 21:50:37 10° S
SL-08 R/B 3.4 21:43:29 10° S 21:48:24 84° WSW 21:53:15 10° NNW
FengYun 1-2 T 4.2 21:43:35 10° N 21:49:03 74° WNW 21:54:32 10° SSW
COBE Rocket 4.1 21:44:16 10° NNE 21:49:13 79° ESE 21:54:03 10° S
DELTA 2 DEB (DPAF) 4.4 21:45:10 10° SSE 21:49:30 71° ENE 21:53:50 10° N
Cosmos 1331 Rocket 4.1 21:44:56 10° N 21:50:12 86° ENE 21:55:30 10° SSE
Delta 128 4.3 21:44:06 10° WNW 21:50:36 80° NNE 21:56:02 10° ESE
H-2A R/B 2.0 21:46:06 10° N 21:50:56 58° WNW 21:55:56 10° SSW
Ariane H10+ 0.6 21:54:39 11° W 21:56:43 79° N 22:01:00 10° E
USA 215 4.2 21:52:51 10° S 21:58:05 26° SW 22:03:19 10° WNW
OAO 3 Rocket 3.7 21:55:12 10° WNW 21:59:51 43° SW 22:04:33 10° SE
NOSS 3-4 (A) 4.5 21:56:27 10° NW 22:04:09 45° WSW 22:12:13 10° S
NOSS 3-4 (C) 4.5 21:56:32 10° NW 22:04:15 46° WSW 22:12:22 10° S
Cosmos 1933 Rocket 3.6 22:01:43 10° N 22:06:09 77° W 22:10:36 10° S
